Holdrege, NE

11:41 PM CDT on March 28, 2017 (GMT -0500)
Brewster

Weather History for KHDE - November, 2012

Change the Weather History Date:

Saturday, November 24, 2012

  Actual Average Record
Temperature  
Mean Temperature 39 °F -  
Max Temperature 55 °F 44 °F 67 °F (1976)
Min Temperature 23 °F 21 °F 1 °F (1950)
Degree Days  
Heating Degree Days 26    
Moisture  
Dew Point 19 °F    
Average Humidity 48    
Maximum Humidity 68    
Minimum Humidity 25    
Precipitation  
Precipitation 0.00 in - - ()
Sea Level Pressure  
Sea Level Pressure 29.98 in    
Wind  
Wind Speed 9 mph (SSW)    
Max Wind Speed 17 mph    
Max Gust Speed 23 mph    
Visibility 10 miles    
Events      
Averages and records for this station are not official NWS values.
T = Trace of Precipitation, MM = Missing Value Source: NWS Daily Summary

Daily Weather History Graph

Daily Weather History Graph

Search for Another Location

Airport or City:

Trip Planner

Search our weather history database for the weather conditions in past years. The results will help you decide how hot, cold, wet, or windy it might be!

Date:

Astronomy

Nov. 24, 2012 Rise Set
Actual Time 7:34 AM CST 5:13 PM CST
Civil Twilight 7:04 AM CST 5:43 PM CST
Nautical Twilight 6:31 AM CST 6:17 PM CST
Astronomical Twilight 5:58 AM CST 6:49 PM CST
Moon 2:59 PM CST (11/24) 3:52 AM CST (11/24)
Length of Visible Light 10h 39m
Length of Day
9h 39m
Waxing Gibbous, 87% of the Moon is Illuminated
Nov 24
Waxing Gibbous
Nov 28
Full
Dec 6
Last Quarter
Dec 13
New
Dec 19
First Quarter

Hourly Weather History & Observations

Time (CST) Temp. Windchill Dew Point Humidity Pressure Visibility Wind Dir Wind Speed Gust Speed Precip Events Conditions
12:15 AM 26.4 °F 17.3 °F 14.0 °F 59% 30.28 in 10.0 mi South 9.2 mph - N/A   Clear
12:35 AM 25.0 °F 16.3 °F 13.8 °F 63% 30.28 in 10.0 mi South 8.1 mph - N/A   Clear
12:55 AM 24.3 °F 15.4 °F 13.8 °F 64% 30.27 in 10.0 mi South 8.1 mph - N/A   Clear
1:15 AM 24.4 °F 16.5 °F 13.8 °F 64% 30.25 in 10.0 mi South 6.9 mph - N/A   Clear
1:35 AM 24.1 °F 16.0 °F 14.0 °F 65% 30.25 in 10.0 mi South 6.9 mph - N/A   Clear
1:55 AM 23.4 °F 15.2 °F 14.0 °F 67% 30.23 in 10.0 mi South 6.9 mph - N/A   Clear
2:15 AM 23.9 °F 15.0 °F 14.0 °F 66% 30.22 in 10.0 mi South 8.1 mph - N/A   Clear
2:35 AM 24.8 °F 16.1 °F 14.5 °F 65% 30.21 in 10.0 mi South 8.1 mph - N/A   Clear
2:55 AM 24.6 °F 15.8 °F 14.5 °F 66% 30.20 in 10.0 mi South 8.1 mph - N/A   Clear
3:15 AM 24.3 °F 14.6 °F 14.9 °F 68% 30.19 in 10.0 mi South 9.2 mph - N/A   Clear
3:55 AM 27.5 °F 18.6 °F 16.5 °F 63% 30.17 in 10.0 mi South 9.2 mph - N/A   Clear
4:15 AM 28.0 °F 19.3 °F 16.7 °F 62% 30.16 in 10.0 mi South 9.2 mph - N/A   Clear
4:35 AM 27.5 °F 18.6 °F 16.9 °F 64% 30.14 in 10.0 mi South 9.2 mph - N/A   Clear
4:55 AM 28.6 °F 18.7 °F 17.2 °F 63% 30.13 in 10.0 mi South 11.5 mph 17.3 mph N/A   Clear
5:15 AM 29.1 °F 18.9 °F 17.4 °F 62% 30.12 in 10.0 mi South 12.7 mph - N/A   Clear
5:35 AM 29.3 °F 19.1 °F 17.4 °F 61% 30.11 in 10.0 mi South 12.7 mph - N/A   Clear
5:55 AM 28.4 °F 18.0 °F 17.2 °F 63% 30.10 in 10.0 mi South 12.7 mph - N/A   Clear
6:15 AM 28.8 °F 18.4 °F 17.6 °F 63% 30.09 in 10.0 mi South 12.7 mph - N/A   Clear
6:35 AM 28.4 °F 17.5 °F 17.6 °F 64% 30.08 in 10.0 mi South 13.8 mph - N/A   Clear
6:55 AM 29.3 °F 18.2 °F 18.3 °F 64% 30.07 in 10.0 mi South 15.0 mph - N/A   Clear
7:15 AM 29.5 °F 17.6 °F 18.5 °F 64% 30.05 in 10.0 mi South 17.3 mph 23.0 mph N/A   Clear
7:35 AM 29.3 °F 18.2 °F 18.5 °F 64% 30.05 in 10.0 mi South 15.0 mph - N/A   Clear
7:55 AM 29.7 °F 19.6 °F 18.5 °F 63% 30.06 in 10.0 mi South 12.7 mph 20.7 mph N/A   Clear
8:15 AM 29.7 °F 19.1 °F 18.5 °F 63% 30.03 in 10.0 mi South 13.8 mph 21.9 mph N/A   Clear
8:35 AM 30.0 °F 26.5 °F 19.0 °F 64% 30.06 in 10.0 mi WSW 3.5 mph - N/A   Clear
8:55 AM 30.7 °F 22.0 °F 19.0 °F 62% 30.07 in 10.0 mi SSW 10.4 mph - N/A   Clear
9:15 AM 31.8 °F 22.8 °F 19.0 °F 59% 30.05 in 10.0 mi SSW 11.5 mph - N/A   Clear
9:35 AM 32.4 °F 24.0 °F 19.0 °F 58% 30.03 in 10.0 mi SSW 10.4 mph 19.6 mph N/A   Clear
9:55 AM 34.0 °F 24.6 °F 19.0 °F 54% 30.02 in 10.0 mi SSW 13.8 mph 19.6 mph N/A   Clear
10:15 AM 34.9 °F 26.6 °F 19.0 °F 52% 30.01 in 10.0 mi SW 11.5 mph 19.6 mph N/A   Clear
10:35 AM 36.7 °F 28.9 °F 19.2 °F 49% 30.01 in 10.0 mi SW 11.5 mph 19.6 mph N/A   Clear
10:55 AM 37.8 °F 30.7 °F 18.9 °F 47% 30.00 in 10.0 mi SSW 10.4 mph - N/A   Clear
11:15 AM 40.1 °F 32.7 °F 19.4 °F 43% 29.99 in 10.0 mi SSW 12.7 mph - N/A   Clear
11:35 AM 42.3 °F 35.9 °F 19.4 °F 40% 29.97 in 10.0 mi SW 11.5 mph - N/A   Clear
11:55 AM 43.0 °F 38.2 °F 19.6 °F 39% 29.95 in 10.0 mi SSW 8.1 mph - N/A   Clear
12:15 PM 44.4 °F 39.5 °F 19.2 °F 37% 29.94 in 10.0 mi SW 9.2 mph - N/A   Clear
12:35 PM 45.0 °F 40.6 °F 19.4 °F 36% 29.93 in 10.0 mi SW 8.1 mph - N/A   Clear
12:55 PM 47.1 °F - 20.1 °F 34% 29.91 in 10.0 mi SSW 11.5 mph - N/A   Clear
1:15 PM 47.8 °F - 19.9 °F 33% 29.90 in 10.0 mi SSW 8.1 mph - N/A   Clear
1:35 PM 48.4 °F - 19.9 °F 32% 29.89 in 10.0 mi SSW 10.4 mph - N/A   Clear
1:55 PM 50.9 °F - 20.3 °F 30% 29.87 in 10.0 mi South 10.4 mph - N/A   Clear
2:15 PM 53.2 °F - 20.8 °F 28% 29.87 in 10.0 mi SW 8.1 mph - N/A   Clear
2:35 PM 54.5 °F - 20.8 °F 27% 29.87 in 10.0 mi SSW 12.7 mph - N/A   Clear
2:55 PM 54.3 °F - 20.7 °F 27% 29.86 in 10.0 mi SSW 12.7 mph - N/A   Clear
3:15 PM 54.7 °F - 20.8 °F 27% 29.85 in 10.0 mi SSW 12.7 mph - N/A   Clear
3:35 PM 55.6 °F - 21.0 °F 26% 29.85 in 10.0 mi SSW 11.5 mph 16.1 mph N/A   Clear
3:55 PM 55.9 °F - 20.7 °F 25% 29.84 in 10.0 mi SSW 12.7 mph - N/A   Clear
4:15 PM 55.6 °F - 20.7 °F 26% 29.84 in 10.0 mi South 8.1 mph - N/A   Clear
4:35 PM 54.3 °F - 20.8 °F 27% 29.84 in 10.0 mi SSW 9.2 mph - N/A   Clear
4:55 PM 52.2 °F - 20.3 °F 29% 29.84 in 10.0 mi SSW 9.2 mph - N/A   Clear
5:15 PM 50.7 °F - 20.3 °F 30% 29.83 in 10.0 mi South 9.2 mph - N/A   Clear
5:35 PM 49.5 °F - 20.3 °F 32% 29.83 in 10.0 mi South 6.9 mph - N/A   Clear
5:55 PM 48.0 °F - 20.1 °F 33% 29.83 in 10.0 mi SSW 8.1 mph - N/A   Clear
6:15 PM 47.1 °F - 20.3 °F 35% 29.83 in 10.0 mi South 6.9 mph - N/A   Clear
6:35 PM 45.9 °F 42.9 °F 20.1 °F 36% 29.83 in 10.0 mi South 5.8 mph - N/A   Clear
6:55 PM 45.5 °F 44.2 °F 20.1 °F 36% 29.83 in 10.0 mi South 3.5 mph - N/A   Clear
7:15 PM 45.5 °F - 20.1 °F 36% 29.83 in 10.0 mi Calm Calm - N/A   Clear
7:35 PM 43.2 °F - 20.7 °F 41% 29.83 in 10.0 mi Calm Calm - N/A   Clear
7:55 PM 38.3 °F 33.9 °F 19.8 °F 47% 29.83 in 10.0 mi NNE 5.8 mph - N/A   Clear
8:15 PM 37.4 °F 32.1 °F 18.9 °F 47% 29.83 in 10.0 mi NNE 6.9 mph - N/A   Clear
8:35 PM 38.3 °F 35.9 °F 20.1 °F 48% 29.84 in 7.0 mi NNE 3.5 mph - N/A   Clear
8:55 PM 37.8 °F - 18.9 °F 47% 29.84 in 10.0 mi Calm Calm - N/A   Clear
9:15 PM 34.2 °F 31.2 °F 18.5 °F 53% 29.85 in 10.0 mi North 3.5 mph - N/A   Clear
9:35 PM 39.9 °F 35.8 °F 20.3 °F 45% 29.85 in 10.0 mi NNW 5.8 mph - N/A   Clear
9:55 PM 37.8 °F 33.3 °F 19.8 °F 48% 29.86 in 10.0 mi NNW 5.8 mph - N/A   Clear
10:15 PM 41.5 °F 35.0 °F 21.0 °F 44% 29.87 in 10.0 mi NNW 11.5 mph - N/A   Clear
10:35 PM 42.8 °F 37.0 °F 20.3 °F 41% 29.88 in 10.0 mi North 10.4 mph - N/A   Clear
10:55 PM 39.4 °F 33.2 °F 20.5 °F 47% 29.89 in 10.0 mi North 9.2 mph - N/A   Clear
11:15 PM 39.7 °F 32.3 °F 21.9 °F 49% 29.89 in 10.0 mi North 12.7 mph - N/A   Clear
11:35 PM 43.9 °F 36.8 °F 21.7 °F 41% 29.90 in 10.0 mi NNE 15.0 mph - N/A   Clear
11:55 PM 42.6 °F 35.2 °F 21.2 °F 43% 29.90 in 10.0 mi North 15.0 mph - N/A   Clear